EW7741 Weather Reports


time (UTC)temp
C
wind
direction
speed
KPH
gust
KPH
rain 1hr
cm
rain 24hr
cm
rain mn
cm
humidity
%
barometer
mb
20260506160045 16 258 0.0 4.8 0.00 0.00 0.00 79 1021.4
20260506155547 15 142 0.0 4.8 0.00 0.00 0.00 79 1021.6
20260506155045 15 276 0.0 4.8 0.00 0.00 0.00 78 1021.6
20260506154545 15 244 0.0 4.8 0.00 0.00 0.00 79 1021.4
20260506154044 15 310 1.6 4.8 0.00 0.00 0.00 80 1021.7
20260506153545 15 264 0.0 4.8 0.00 0.00 0.00 80 1021.7
20260506153044 15 147 0.0 6.4 0.00 0.00 0.00 81 1021.6
20260506152545 15 186 1.6 6.4 0.00 0.00 0.00 82 1021.6
20260506152045 15 265 0.0 3.2 0.00 0.00 0.00 82 1021.6
20260506151549 14 321 0.0 3.2 0.00 0.00 0.00 84 1021.6
20260506151544 14 272 0.0 3.2 0.00 0.00 0.00 83 1021.6
20260506150544 14 226 0.0 3.2 0.00 0.00 0.00 84 1021.6
20260506150044 14 235 0.0 4.8 0.00 0.00 0.00 85 1021.4
20260506145548 13 257 0.0 3.2 0.00 0.00 0.00 86 1021.4
20260506145543 13 124 0.0 4.8 0.00 0.00 0.00 86 1021.6
20260506144543 13 233 0.0 3.2 0.00 0.00 0.00 87 1021.4
20260506144043 13 199 0.0 1.6 0.00 0.00 0.00 87 1021.4
20260506143544 13 219 0.0 0.0 0.00 0.00 0.00 87 1021.3
20260506143043 13 213 0.0 3.2 0.00 0.00 0.00 87 1021.3
20260506142543 13 244 1.6 3.2 0.00 0.00 0.00 87 1021.3
20260506142044 13 233 0.0 3.2 0.00 0.00 0.00 87 1021.3
20260506141543 13 272 0.0 1.6 0.00 0.00 0.00 87 1021.1
20260506141042 13 226 0.0 3.2 0.00 0.00 0.00 87 1021.0
20260506140542 12 203 0.0 3.2 0.00 0.00 0.00 87 1021.0
20260506140043 12 133 0.0 0.0 0.00 0.00 0.00 87 1021.0
20260506135542 12 175 0.0 0.0 0.00 0.00 0.00 87 1020.9
20260506135042 12 175 0.0 0.0 0.00 0.00 0.00 87 1020.8
20260506134542 12 182 0.0 0.0 0.00 0.00 0.00 87 1020.9
20260506134048 12 182 0.0 0.0 0.00 0.00 0.00 87 1020.9
20260506134043 12 182 0.0 0.0 0.00 0.00 0.00 87 1020.9
20260506133043 12 182 0.0 0.0 0.00 0.00 0.00 86 1020.8
20260506132657 12 169 0.0 0.0 0.00 0.00 0.00 86 1020.8
20260506132547 12 169 0.0 0.0 0.00 0.00 0.00 86 1020.8
20260506132542 12 182 0.0 0.0 0.00 0.00 0.00 86 1020.7
20260506131042 12 265 0.0 0.0 0.00 0.00 0.00 86 1020.6
20260506130541 12 147 0.0 0.0 0.00 0.00 0.00 86 1020.6
20260506130041 12 147 0.0 0.0 0.00 0.00 0.00 86 1020.6
20260506125543 12 147 0.0 1.6 0.00 0.00 0.00 86 1020.6
20260506125041 12 147 0.0 1.6 0.00 0.00 0.00 86 1020.6
20260506124541 13 147 0.0 1.6 0.00 0.00 0.00 86 1020.5
20260506124040 13 147 0.0 0.0 0.00 0.00 0.00 86 1020.5
20260506123540 13 190 0.0 0.0 0.00 0.00 0.00 86 1020.5
20260506123046 13 186 0.0 1.6 0.00 0.00 0.00 85 1020.5
20260506123041 13 151 0.0 0.0 0.00 0.00 0.00 85 1020.5
20260506122041 13 140 0.0 1.6 0.00 0.00 0.00 85 1020.4
20260506121542 13 224 0.0 0.0 0.00 0.00 0.00 85 1020.5
20260506121040 13 244 0.0 1.6 0.00 0.00 0.00 85 1020.5
20260506120540 13 244 0.0 1.6 0.00 0.00 0.00 85 1020.4
20260506120040 13 244 0.0 0.0 0.00 0.00 0.00 85 1020.4
20260506115541 13 244 0.0 0.0 0.00 0.00 0.00 84 1020.3
20260506115039 13 244 0.0 0.0 0.00 0.00 0.00 84 1020.3
20260506114539 13 244 0.0 0.0 0.00 0.00 0.00 84 1020.3
20260506114044 13 244 0.0 1.6 0.00 0.00 0.00 84 1020.2
20260506114039 13 244 0.0 1.6 0.00 0.00 0.00 84 1020.3
20260506113039 13 197 0.0 0.0 0.00 0.00 0.00 84 1020.2
20260506112540 13 241 0.0 1.6 0.00 0.00 0.00 83 1020.1
20260506112039 13 261 0.0 1.6 0.00 0.00 0.00 83 1020.2
20260506111539 13 261 0.0 1.6 0.00 0.00 0.00 83 1020.1
20260506111039 13 190 0.0 0.0 0.00 0.00 0.00 83 1020.1
20260506110539 13 190 0.0 0.0 0.00 0.00 0.00 83 1019.9
20260506110038 13 214 0.0 1.6 0.00 0.00 0.00 83 1019.9
20260506105539 13 214 0.0 1.6 0.00 0.00 0.00 83 1020.0
20260506105038 13 178 0.0 1.6 0.00 0.00 0.00 83 1020.0
20260506104545 13 231 0.0 0.0 0.00 0.00 0.00 83 1019.9
20260506104539 13 158 0.0 1.6 0.00 0.00 0.00 83 1019.9
20260506103538 13 231 0.0 0.0 0.00 0.00 0.00 83 1020.0
20260506103038 13 231 0.0 0.0 0.00 0.00 0.00 83 1019.9
20260506102538 13 231 0.0 0.0 0.00 0.00 0.00 83 1019.9
20260506102037 13 231 0.0 0.0 0.00 0.00 0.00 83 1019.8
20260506101538 13 235 0.0 3.2 0.00 0.00 0.00 83 1019.8
20260506101043 13 241 0.0 1.6 0.00 0.00 0.00 83 1019.8
20260506101037 13 235 0.0 3.2 0.00 0.00 0.00 83 1019.8
20260506100037 13 135 0.0 1.6 0.00 0.00 0.00 83 1019.7
20260506095537 13 254 0.0 1.6 0.00 0.00 0.00 83 1019.7
20260506095037 13 258 0.0 1.6 0.00 0.00 0.00 83 1019.7
20260506094537 13 197 0.0 0.0 0.00 0.00 0.00 83 1019.7
20260506094036 13 197 0.0 1.6 0.00 0.00 0.00 82 1019.7
20260506093537 13 197 0.0 3.2 0.00 0.00 0.00 82 1019.6
20260506093042 13 217 0.0 1.6 0.00 0.00 0.00 82 1019.7
20260506093036 13 269 0.0 3.2 0.00 0.00 0.00 82 1019.6
20260506092036 13 241 0.0 1.6 0.00 0.00 0.00 82 1019.9
20260506091537 13 241 0.0 1.6 0.00 0.00 0.00 82 1019.8
20260506091036 13 128 0.0 1.6 0.00 0.00 0.00 82 1019.9
20260506090535 13 233 0.0 1.6 0.00 0.00 0.00 82 1019.9
20260506090035 13 210 0.0 1.6 0.00 0.00 0.00 82 1019.9
20260506085536 13 125 0.0 1.6 0.00 0.00 0.00 82 1019.8
20260506085035 13 200 0.0 0.0 0.00 0.00 0.00 82 1019.8
20260506084536 13 142 0.0 1.6 0.00 0.03 0.00 82 1019.9
20260506084035 13 275 0.0 1.6 0.00 0.03 0.00 82 1019.9
20260506083537 13 171 0.0 1.6 0.00 0.05 0.00 82 1019.8
20260506083035 13 274 0.0 1.6 0.00 0.05 0.00 82 1019.8
20260506082535 13 206 0.0 4.8 0.00 0.05 0.00 82 1019.8
20260506082035 12 217 0.0 4.8 0.00 0.05 0.00 82 1019.9
20260506081535 12 275 0.0 1.6 0.00 0.05 0.00 83 1019.9
20260506081036 12 274 0.0 6.4 0.00 0.05 0.00 83 1019.8
20260506080535 12 274 0.0 6.4 0.00 0.05 0.00 83 1019.7
20260506073033 12 282 0.0 3.2 0.00 0.13 0.00 86 1019.4
20260506072535 12 237 0.0 3.2 0.00 0.13 0.00 86 1019.5
20260506072033 12 230 0.0 1.6 0.00 0.18 0.00 87 1019.5
20260506071534 12 264 0.0 0.0 0.00 0.18 0.00 87 1019.5
20260506071034 12 298 0.0 0.0 0.00 0.20 0.00 86 1019.4
20260506070539 12 298 0.0 0.0 0.00 0.23 0.00 86 1019.3
20260506070534 12 298 0.0 0.0 0.00 0.23 0.00 87 1019.3
20260506062032 12 241 0.0 0.0 0.00 0.28 0.23 85 1018.9
20260506061532 12 241 0.0 0.0 0.00 0.28 0.23 85 1019.1
20260506061033 12 241 0.0 1.6 0.00 0.28 0.23 85 1018.9
20260506060531 12 241 0.0 1.6 0.00 0.28 0.23 85 1018.8
20260506051031 13 226 0.0 4.8 0.00 0.41 0.23 83 1018.5
20260506050537 13 250 0.0 4.8 0.00 0.43 0.23 83 1018.4
20260506050531 13 116 0.0 3.2 0.00 0.41 0.23 83 1018.5
20260506045030 13 124 0.0 1.6 0.00 0.43 0.23 83 1018.3
20260506044531 13 217 0.0 1.6 0.00 0.46 0.23 83 1018.2
20260506044030 13 147 0.0 1.6 0.00 0.46 0.23 83 1018.2
20260506043530 13 209 0.0 3.2 0.00 0.48 0.23 83 1018.2
20260506043030 13 245 0.0 3.2 0.00 0.51 0.23 83 1018.0
20260506042530 13 245 0.0 1.6 0.00 0.51 0.23 82 1017.9
20260506042035 13 176 0.0 4.8 0.00 0.53 0.23 82 1017.9
20260506042029 13 221 0.0 1.6 0.00 0.53 0.23 82 1017.8
20260506041029 13 228 0.0 4.8 0.00 0.53 0.23 82 1017.9
20260506040529 13 285 0.0 4.8 0.00 0.56 0.23 82 1017.8
20260506040029 13 151 0.0 3.2 0.00 0.56 0.23 82 1017.8
20260506035529 14 130 0.0 8.0 0.00 0.58 0.23 82 1017.7
20260506035030 14 148 3.2 8.0 0.00 0.58 0.23 82 1017.6
20260506034529 14 259 0.0 4.8 0.00 0.58 0.23 82 1017.6
20260506034145 14 257 1.6 8.0 0.00 0.58 0.23 82 1017.3
20260506034029 14 142 0.0 3.2 0.00 0.58 0.23 82 1017.5
20260506033534 14 164 1.6 6.4 0.00 0.58 0.23 82 1017.4
20260506033529 14 137 0.0 6.4 0.00 0.58 0.23 82 1017.5
20260506032642 14 243 1.6 11.3 0.00 0.58 0.23 82 1017.1
20260506031528 14 278 3.2 11.3 0.00 0.58 0.23 81 1017.1
20260506031028 14 110 3.2 8.0 0.00 0.58 0.23 81 1017.0
20260506030528 14 224 1.6 9.7 0.00 0.58 0.23 81 1016.9
20260506030034 14 106 0.0 8.0 0.00 0.58 0.23 80 1016.8
20260506030029 14 161 3.2 9.7 0.00 0.58 0.23 80 1016.8
20260506025028 15 221 1.6 8.0 0.00 0.58 0.23 80 1016.8
20260506024531 15 230 3.2 9.7 0.00 0.58 0.23 79 1016.8
20260506024527 15 265 1.6 9.7 0.00 0.58 0.23 79 1016.9
20260506023527 15 288 1.6 8.0 0.00 0.58 0.23 79 1016.7
20260506023028 15 149 1.6 8.0 0.00 0.58 0.23 78 1016.7
20260506022527 15 203 0.0 8.0 0.00 0.58 0.23 78 1016.8
20260506022028 15 247 1.6 8.0 0.00 0.58 0.23 78 1016.8
20260506021527 15 243 0.0 3.2 0.00 0.58 0.23 77 1016.7
20260506021027 15 209 0.0 3.2 0.00 0.58 0.23 77 1016.7
20260506020533 15 241 0.0 6.4 0.00 0.58 0.23 76 1016.5
20260506020527 15 173 0.0 1.6 0.00 0.58 0.23 77 1016.6
20260506015526 15 94 0.0 6.4 0.00 0.58 0.23 76 1016.5
20260506015026 15 240 1.6 11.3 0.00 0.58 0.23 75 1016.4
20260506014527 15 269 0.0 11.3 0.00 0.58 0.23 75 1016.3
20260506014032 16 197 0.0 8.0 0.00 0.58 0.23 75 1016.2
20260506014026 15 221 1.6 8.0 0.00 0.58 0.23 75 1016.3
20260506013027 16 166 1.6 8.0 0.00 0.58 0.23 75 1016.2
20260506012532 16 310 3.2 9.7 0.00 0.58 0.23 75 1016.1
20260506012526 16 113 1.6 8.0 0.00 0.58 0.23 75 1016.1
20260506012138 16 171 3.2 9.7 0.00 0.58 0.23 74 1016.2
20260506011031 16 268 4.8 9.7 0.00 0.58 0.23 74 1016.2
20260506011026 16 141 3.2 9.7 0.00 0.58 0.23 74 1016.2
20260506010031 16 276 1.6 9.7 0.00 0.58 0.23 74 1016.1
20260506010026 16 247 3.2 9.7 0.00 0.58 0.23 74 1016.1
20260506005638 16 235 1.6 9.7 0.00 0.58 0.23 74 1016.1
20260506005139 16 152 1.6 11.3 0.00 0.58 0.23 75 1016.1
20260506004026 16 190 1.6 11.3 0.00 0.58 0.23 75 1016.0
20260506003525 16 234 1.6 8.0 0.00 0.58 0.23 75 1016.0
20260506003025 16 133 1.6 8.0 0.00 0.58 0.23 75 1016.0
20260506002529 16 100 3.2 9.7 0.00 0.58 0.23 74 1015.9
20260506002524 16 179 0.0 8.0 0.00 0.58 0.23 75 1016.0
20260506001529 16 250 1.6 6.4 0.00 0.58 0.23 74 1015.9
20260506001524 16 155 1.6 9.7 0.00 0.58 0.23 74 1015.9
20260506000530 16 176 3.2 8.0 0.00 0.58 0.23 74 1015.9
20260506000525 16 289 0.0 6.4 0.00 0.58 0.23 75 1016.0
20260505235524 16 164 3.2 8.0 0.00 0.58 0.23 74 1015.9
20260505235024 16 226 1.6 8.0 0.00 0.58 0.23 73 1015.9
20260505234524 17 166 3.2 8.0 0.00 0.58 0.23 73 1015.9
20260505234024 17 144 1.6 8.0 0.00 0.58 0.23 74 1016.0
20260505233525 17 188 0.0 4.8 0.00 0.58 0.23 73 1015.9
20260505233023 17 214 0.0 11.3 0.00 0.58 0.23 73 1016.0
20260505232529 17 148 1.6 8.0 0.00 0.58 0.23 73 1016.0
20260505232524 17 237 1.6 11.3 0.00 0.58 0.23 73 1015.9
20260505231523 17 140 1.6 8.0 0.00 0.58 0.23 72 1016.0
20260505231023 17 164 1.6 6.4 0.00 0.58 0.23 72 1016.0
20260505230523 17 216 1.6 4.8 0.00 0.58 0.23 72 1016.0
20260505230023 17 231 1.6 3.2 0.00 0.58 0.23 72 1015.9
20260505225523 17 180 0.0 4.8 0.00 0.58 0.23 72 1015.9
20260505225022 17 238 1.6 4.8 0.00 0.58 0.23 72 1016.0
20260505224522 17 226 0.0 4.8 0.00 0.58 0.23 71 1015.9
20260505224026 17 266 0.0 4.8 0.00 0.58 0.23 72 1016.0
20260505224022 17 285 1.6 4.8 0.00 0.58 0.23 71 1015.9
20260505223024 17 149 0.0 4.8 0.00 0.58 0.23 71 1016.0
20260505222522 17 231 0.0 8.0 0.00 0.58 0.23 71 1016.0
20260505222022 17 230 1.6 9.7 0.00 0.58 0.23 70 1016.1
20260505221522 17 231 1.6 9.7 0.00 0.58 0.23 71 1016.1
20260505221022 17 259 0.0 4.8 0.00 0.58 0.23 71 1016.1
20260505220527 17 144 0.0 6.4 0.00 0.58 0.23 72 1016.1
20260505220522 17 283 1.6 4.8 0.00 0.58 0.23 71 1016.1
20260505215522 17 285 0.0 8.0 0.00 0.58 0.23 72 1016.1
20260505215021 17 17 3.2 8.0 0.00 0.58 0.23 71 1016.2
20260505214527 17 265 3.2 6.4 0.00 0.58 0.23 70 1016.3
20260505214521 17 230 3.2 8.0 0.00 0.58 0.23 71 1016.1
20260505213522 17 240 1.6 4.8 0.00 0.58 0.23 70 1016.3
20260505213021 17 142 0.0 6.4 0.00 0.58 0.23 70 1016.3
20260505212520 17 228 1.6 6.4 0.00 0.58 0.23 69 1016.2
20260505212026 18 252 1.6 6.4 0.00 0.58 0.23 68 1016.3
20260505212021 18 278 1.6 3.2 0.00 0.58 0.23 68 1016.3
20260505211024 18 94 1.6 8.0 0.00 0.58 0.23 68 1016.3
20260505211020 18 210 1.6 8.0 0.00 0.58 0.23 68 1016.3
20260505210021 18 228 1.6 6.4 0.00 0.58 0.23 67 1016.2
20260505205520 18 266 0.0 8.0 0.00 0.58 0.23 67 1016.2
20260505205019 18 262 0.0 8.0 0.00 0.58 0.23 67 1016.3
20260505204519 18 268 1.6 9.7 0.00 0.58 0.23 66 1016.3
20260505204021 18 241 1.6 9.7 0.00 0.58 0.23 67 1016.3
20260505203520 18 245 0.0 8.0 0.00 0.58 0.23 67 1016.3
20260505203020 18 203 3.2 8.0 0.00 0.58 0.23 68 1016.4
20260505202520 18 38 0.0 8.0 0.00 0.58 0.23 69 1016.3
20260505202021 17 276 3.2 8.0 0.00 0.58 0.23 69 1016.3
20260505201525 17 259 3.2 11.3 0.00 0.58 0.23 68 1016.4
20260505201519 17 302 3.2 11.3 0.00 0.58 0.23 69 1016.4
20260505200519 17 295 1.6 11.3 0.00 0.58 0.23 69 1016.5
20260505200019 17 234 4.8 11.3 0.00 0.58 0.23 69 1016.5
20260505195520 17 237 3.2 8.0 0.00 0.58 0.23 68 1016.7
20260505195024 17 219 0.0 9.7 0.00 0.58 0.23 71 1016.7
20260505195020 17 255 4.8 8.0 0.00 0.58 0.23 70 1016.6
20260505194019 17 206 3.2 9.7 0.00 0.58 0.23 71 1016.7
20260505193518 17 251 3.2 6.4 0.00 0.58 0.23 71 1016.7
20260505193018 16 302 1.6 8.0 0.00 0.58 0.23 74 1016.6
20260505192518 16 227 3.2 8.0 0.00 0.58 0.23 72 1016.7
20260505192018 16 247 1.6 9.7 0.00 0.58 0.23 73 1016.7
20260505191517 16 278 3.2 9.7 0.00 0.58 0.23 73 1016.7
20260505191023 16 257 1.6 8.0 0.00 0.58 0.23 75 1016.7
20260505191017 16 310 1.6 8.0 0.00 0.58 0.23 74 1016.5
20260505190018 16 254 3.2 9.7 0.00 0.58 0.23 74 1016.6
20260505185517 16 258 3.2 9.7 0.00 0.58 0.23 74 1016.6
20260505185017 16 266 1.6 8.0 0.00 0.58 0.23 75 1016.5
20260505184520 16 305 1.6 8.0 0.00 0.58 0.23 75 1016.5
20260505184516 16 237 1.6 6.4 0.00 0.58 0.23 75 1016.4
20260505183522 16 193 0.0 4.8 0.00 0.58 0.23 77 1016.5
20260505183518 16 265 3.2 8.0 0.00 0.58 0.23 76 1016.5
20260505182517 15 321 0.0 4.8 0.00 0.58 0.23 78 1016.4
20260505182017 15 223 1.6 8.0 0.00 0.58 0.23 78 1016.5
20260505181517 15 235 3.2 8.0 0.00 0.58 0.23 78 1016.6
20260505181016 15 214 1.6 6.4 0.00 0.58 0.23 79 1016.5
20260505180515 15 303 0.0 3.2 0.00 0.58 0.23 80 1016.5
20260505180016 15 223 0.0 8.0 0.00 0.58 0.23 80 1016.5
20260505175516 15 264 1.6 8.0 0.00 0.58 0.23 80 1016.5
20260505175021 15 243 0.0 6.4 0.00 0.58 0.23 83 1016.4
20260505175016 15 302 1.6 6.4 0.00 0.58 0.23 81 1016.5
20260505174015 14 221 1.6 6.4 0.00 0.58 0.23 83 1016.4
20260505173515 14 288 0.0 6.4 0.00 0.58 0.23 84 1016.4
20260505173020 14 247 0.0 4.8 0.00 0.58 0.23 85 1016.2
20260505173015 14 271 1.6 6.4 0.00 0.58 0.23 84 1016.3
20260505172015 14 281 0.0 4.8 0.00 0.58 0.23 86 1016.2
20260505171515 13 217 1.6 6.4 0.00 0.58 0.23 86 1016.2
20260505171015 13 329 3.2 6.4 0.00 0.58 0.23 86 1016.2
20260505170515 13 286 0.0 6.4 0.00 0.58 0.23 87 1016.2
20260505170014 13 298 1.6 6.4 0.00 0.58 0.23 87 1016.3
20260505165514 13 276 1.6 6.4 0.00 0.58 0.23 87 1016.3
20260505165014 13 259 0.0 4.8 0.00 0.58 0.23 88 1016.3
20260505164514 13 288 0.0 3.2 0.00 0.58 0.23 88 1016.3
20260505164014 13 214 0.0 4.8 0.00 0.58 0.23 88 1016.3
20260505163520 13 269 0.0 4.8 0.00 0.58 0.23 88 1016.3
20260505163515 13 275 0.0 4.8 0.00 0.58 0.23 88 1016.3
20260505162515 13 149 0.0 4.8 0.00 0.58 0.23 88 1016.2
20260505162025 13 179 0.0 4.8 0.00 0.58 0.23 88 1016.2
20260505161514 13 221 0.0 4.8 0.00 0.58 0.23 88 1016.2
20260505161014 12 299 0.0 4.8 0.00 0.58 0.23 89 1016.2
20260505160514 12 257 0.0 4.8 0.00 0.58 0.23 89 1016.1